Time,TemperatureF,DewpointF,PressureIn,WindDirection,WindDirectionDegrees,WindSpeedMPH,WindSpeedGustMPH,Humidity,HourlyPrecipIn,Conditions,Clouds,dailyrainin,SoftwareType,DateUTC
2013-09-30 00:14:00,49.4,48.0,29.98,NW,309,0.0,0.0,95,0.00,,,0.00,weatherlink.com 1.10,2013-09-30 04:14:00,
2013-09-30 00:29:00,48.8,48.0,29.98,NW,309,0.0,0.0,95,0.00,,,0.00,weatherlink.com 1.10,2013-09-30 04:29:00,
2013-09-30 00:44:00,48.5,47.0,29.98,NW,309,0.0,0.0,95,0.00,,,0.00,weatherlink.com 1.10,2013-09-30 04:44:00,
2013-09-30 00:59:00,48.4,47.0,29.98,NW,309,0.0,0.0,96,0.00,,,0.00,weatherlink.com 1.10,2013-09-30 04:59:00,
2013-09-30 01:14:00,47.9,47.0,29.98,NW,309,0.0,0.0,95,0.00,,,0.00,weatherlink.com 1.10,2013-09-30 05:14:00,
2013-09-30 01:29:00,47.6,47.0,29.98,NW,309,0.0,0.0,96,0.00,,,0.00,weatherlink.com 1.10,2013-09-30 05:29:00,
2013-09-30 01:44:00,47.5,47.0,29.98,NW,309,0.0,0.0,96,0.00,,,0.00,weatherlink.com 1.10,2013-09-30 05:44:00,
2013-09-30 01:59:00,47.4,46.0,29.98,NW,309,0.0,0.0,96,0.00,,,0.00,weatherlink.com 1.10,2013-09-30 05:59:00,
2013-09-30 02:14:00,46.9,46.0,29.98,NW,309,0.0,0.0,96,0.00,,,0.00,weatherlink.com 1.10,2013-09-30 06:14:00,
2013-09-30 02:29:00,46.1,45.0,29.98,NW,309,0.0,0.0,96,0.00,,,0.00,weatherlink.com 1.10,2013-09-30 06:29:00,
2013-09-30 02:44:00,46.4,45.0,29.98,NW,309,0.0,0.0,96,0.00,,,0.00,weatherlink.com 1.10,2013-09-30 06:44:00,
2013-09-30 02:59:00,46.3,45.0,29.98,NW,309,0.0,0.0,96,0.00,,,0.00,weatherlink.com 1.10,2013-09-30 06:59:00,
2013-09-30 03:14:00,46.0,45.0,29.98,NW,309,0.0,0.0,96,0.00,,,0.00,weatherlink.com 1.10,2013-09-30 07:14:00,
2013-09-30 03:30:00,45.6,45.0,29.97,NW,309,0.0,0.0,96,0.00,,,0.00,weatherlink.com 1.10,2013-09-30 07:30:00,
2013-09-30 03:45:00,45.5,45.0,29.97,NW,309,0.0,0.0,96,0.00,,,0.00,weatherlink.com 1.10,2013-09-30 07:45:00,
2013-09-30 04:00:00,45.5,45.0,29.97,NW,309,0.0,0.0,96,0.00,,,0.00,weatherlink.com 1.10,2013-09-30 08:00:00,
2013-09-30 04:15:00,45.4,44.0,29.97,NW,309,0.0,0.0,96,0.00,,,0.00,weatherlink.com 1.10,2013-09-30 08:15:00,
2013-09-30 04:30:00,45.2,44.0,29.97,NW,309,0.0,0.0,96,0.00,,,0.00,weatherlink.com 1.10,2013-09-30 08:30:00,
2013-09-30 04:45:00,44.7,44.0,29.97,NW,309,0.0,0.0,96,0.00,,,0.00,weatherlink.com 1.10,2013-09-30 08:45:00,
2013-09-30 05:00:00,44.7,44.0,29.98,NW,309,0.0,0.0,97,0.00,,,0.00,weatherlink.com 1.10,2013-09-30 09:00:00,
2013-09-30 05:15:00,44.7,44.0,29.98,NW,309,0.0,0.0,97,0.00,,,0.00,weatherlink.com 1.10,2013-09-30 09:15:00,
2013-09-30 05:30:00,44.9,44.0,29.98,NW,309,0.0,0.0,97,0.00,,,0.00,weatherlink.com 1.10,2013-09-30 09:30:00,
2013-09-30 05:45:00,44.7,44.0,29.98,NW,309,0.0,0.0,97,0.00,,,0.00,weatherlink.com 1.10,2013-09-30 09:45:00,
2013-09-30 06:00:00,44.9,44.0,29.98,NW,309,0.0,0.0,97,0.00,,,0.00,weatherlink.com 1.10,2013-09-30 10:00:00,
2013-09-30 06:15:00,44.5,44.0,29.98,NW,309,0.0,0.0,97,0.00,,,0.00,weatherlink.com 1.10,2013-09-30 10:15:00,
2013-09-30 06:30:00,44.4,44.0,29.99,NW,309,0.0,0.0,97,0.00,,,0.00,weatherlink.com 1.10,2013-09-30 10:30:00,
2013-09-30 06:45:00,44.5,44.0,29.99,NW,309,0.0,1.0,97,0.00,,,0.00,weatherlink.com 1.10,2013-09-30 10:45:00,
2013-09-30 07:00:00,44.3,44.0,29.99,NW,309,0.0,0.0,97,0.00,,,0.00,weatherlink.com 1.10,2013-09-30 11:00:00,
2013-09-30 07:15:00,44.2,43.0,30.00,NW,309,0.0,0.0,97,0.00,,,0.00,weatherlink.com 1.10,2013-09-30 11:15:00,
2013-09-30 07:30:00,44.9,44.0,30.00,NW,309,0.0,0.0,97,0.00,,,0.00,weatherlink.com 1.10,2013-09-30 11:30:00,
2013-09-30 07:45:00,45.9,45.0,30.01,NW,309,0.0,0.0,97,0.00,,,0.00,weatherlink.com 1.10,2013-09-30 11:45:00,
2013-09-30 08:00:00,46.4,46.0,30.01,NW,309,0.0,1.0,97,0.00,,,0.00,weatherlink.com 1.10,2013-09-30 12:00:00,
2013-09-30 08:15:00,47.1,46.0,30.01,SE,132,0.0,1.0,97,0.00,,,0.00,weatherlink.com 1.10,2013-09-30 12:15:00,
2013-09-30 08:30:00,47.1,46.0,30.01,SE,132,0.0,0.0,97,0.00,,,0.00,weatherlink.com 1.10,2013-09-30 12:30:00,
2013-09-30 08:45:00,47.6,47.0,30.02,SE,132,0.0,0.0,97,0.00,,,0.00,weatherlink.com 1.10,2013-09-30 12:45:00,
2013-09-30 09:00:00,48.6,48.0,30.02,SE,142,0.0,1.0,97,0.00,,,0.00,weatherlink.com 1.10,2013-09-30 13:00:00,
2013-09-30 09:15:00,49.5,49.0,30.02,SSW,197,0.0,2.0,97,0.00,,,0.00,weatherlink.com 1.10,2013-09-30 13:15:00,
2013-09-30 09:30:00,50.3,50.0,30.02,SSE,167,0.0,3.0,97,0.00,,,0.00,weatherlink.com 1.10,2013-09-30 13:30:00,
2013-09-30 09:45:00,50.7,50.0,30.02,SSE,162,1.0,1.0,97,0.00,,,0.00,weatherlink.com 1.10,2013-09-30 13:45:00,
2013-09-30 10:00:00,52.3,52.0,30.02,SSW,196,0.0,1.0,97,0.00,,,0.00,weatherlink.com 1.10,2013-09-30 14:00:00,
2013-09-30 10:15:00,54.1,53.0,30.01,SE,134,0.0,1.0,97,0.00,,,0.00,weatherlink.com 1.10,2013-09-30 14:15:00,
2013-09-30 10:30:00,55.2,54.0,30.01,East,98,2.0,4.0,97,0.00,,,0.00,weatherlink.com 1.10,2013-09-30 14:30:00,
2013-09-30 10:45:00,56.0,55.0,30.01,South,176,4.0,4.0,96,0.00,,,0.00,weatherlink.com 1.10,2013-09-30 14:45:00,
2013-09-30 11:00:00,56.1,55.0,30.01,SE,129,3.0,4.0,96,0.00,,,0.00,weatherlink.com 1.10,2013-09-30 15:00:00,
2013-09-30 11:15:00,56.9,56.0,30.00,SE,144,3.0,5.0,95,0.00,,,0.00,weatherlink.com 1.10,2013-09-30 15:15:00,
2013-09-30 11:31:00,57.1,56.0,30.00,ESE,113,3.0,8.0,95,0.00,,,0.00,weatherlink.com 1.10,2013-09-30 15:31:00,
2013-09-30 11:46:00,58.7,57.0,30.00,SE,142,2.0,6.0,94,0.00,,,0.00,weatherlink.com 1.10,2013-09-30 15:46:00,
2013-09-30 12:01:00,60.0,57.0,30.00,ESE,109,0.0,6.0,90,0.00,,,0.00,weatherlink.com 1.10,2013-09-30 16:01:00,
2013-09-30 12:16:00,61.3,57.0,30.00,SSE,154,1.0,4.0,87,0.00,,,0.00,weatherlink.com 1.10,2013-09-30 16:16:00,
2013-09-30 12:31:00,61.8,57.0,30.00,SSE,150,3.0,6.0,85,0.00,,,0.00,weatherlink.com 1.10,2013-09-30 16:31:00,
2013-09-30 12:46:00,62.1,58.0,30.00,SSE,155,4.0,9.0,85,0.00,,,0.00,weatherlink.com 1.10,2013-09-30 16:46:00,
2013-09-30 13:01:00,63.0,58.0,30.00,SSW,204,7.0,8.0,84,0.00,,,0.00,weatherlink.com 1.10,2013-09-30 17:01:00,
2013-09-30 13:16:00,62.9,58.0,30.00,SSE,160,2.0,9.0,84,0.00,,,0.00,weatherlink.com 1.10,2013-09-30 17:16:00,
2013-09-30 13:31:00,63.0,58.0,29.99,South,170,4.0,12.0,83,0.00,,,0.00,weatherlink.com 1.10,2013-09-30 17:31:00,
2013-09-30 13:46:00,63.8,58.0,29.99,SSW,198,6.0,11.0,82,0.00,,,0.00,weatherlink.com 1.10,2013-09-30 17:46:00,
2013-09-30 14:01:00,64.6,58.0,29.98,SSW,204,5.0,10.0,80,0.00,,,0.00,weatherlink.com 1.10,2013-09-30 18:01:00,
2013-09-30 14:16:00,64.6,58.0,29.97,South,184,5.0,12.0,80,0.00,,,0.00,weatherlink.com 1.10,2013-09-30 18:16:00,
2013-09-30 14:31:00,64.7,58.0,29.96,SE,144,3.0,15.0,79,0.00,,,0.00,weatherlink.com 1.10,2013-09-30 18:31:00,
2013-09-30 14:46:00,64.6,58.0,29.96,SSW,201,2.0,12.0,79,0.00,,,0.00,weatherlink.com 1.10,2013-09-30 18:46:00,
2013-09-30 15:01:00,65.0,58.0,29.95,SW,222,6.0,12.0,78,0.00,,,0.00,weatherlink.com 1.10,2013-09-30 19:01:00,
2013-09-30 15:17:00,66.1,59.0,29.94,SSW,208,2.0,10.0,77,0.00,,,0.00,weatherlink.com 1.10,2013-09-30 19:17:00,
2013-09-30 15:31:00,65.7,58.0,29.94,SSW,198,2.0,9.0,76,0.00,,,0.00,weatherlink.com 1.10,2013-09-30 19:31:00,
2013-09-30 15:46:00,66.7,60.0,29.94,SSW,203,7.0,9.0,78,0.00,,,0.00,weatherlink.com 1.10,2013-09-30 19:46:00,
2013-09-30 16:01:00,67.3,59.0,29.93,South,174,8.0,9.0,74,0.00,,,0.00,weatherlink.com 1.10,2013-09-30 20:01:00,
2013-09-30 16:16:00,67.9,59.0,29.93,SW,218,3.0,9.0,73,0.00,,,0.00,weatherlink.com 1.10,2013-09-30 20:16:00,
2013-09-30 16:46:00,69.6,58.0,29.93,West,273,5.0,6.0,66,0.00,,,0.00,weatherlink.com 1.10,2013-09-30 20:46:00,
2013-09-30 17:01:00,70.0,59.0,29.92,SSW,211,2.0,7.0,68,0.00,,,0.00,weatherlink.com 1.10,2013-09-30 21:01:00,
2013-09-30 17:17:00,70.3,58.0,29.92,SSW,204,3.0,6.0,66,0.00,,,0.00,weatherlink.com 1.10,2013-09-30 21:17:00,
2013-09-30 17:32:00,71.1,58.0,29.92,SSW,210,1.0,4.0,64,0.00,,,0.00,weatherlink.com 1.10,2013-09-30 21:32:00,
2013-09-30 17:47:00,71.4,57.0,29.92,SSW,201,5.0,7.0,61,0.00,,,0.00,weatherlink.com 1.10,2013-09-30 21:47:00,
2013-09-30 18:02:00,71.1,57.0,29.92,SW,215,3.0,8.0,61,0.00,,,0.00,weatherlink.com 1.10,2013-09-30 22:02:00,
2013-09-30 18:17:00,71.8,56.0,29.92,SW,215,2.0,5.0,58,0.00,,,0.00,weatherlink.com 1.10,2013-09-30 22:17:00,
2013-09-30 18:32:00,71.0,56.0,29.92,SW,218,1.0,5.0,60,0.00,,,0.00,weatherlink.com 1.10,2013-09-30 22:32:00,
2013-09-30 18:47:00,70.3,56.0,29.92,SW,219,1.0,6.0,61,0.00,,,0.00,weatherlink.com 1.10,2013-09-30 22:47:00,
2013-09-30 19:02:00,70.1,57.0,29.93,SW,228,1.0,1.0,64,0.00,,,0.00,weatherlink.com 1.10,2013-09-30 23:02:00,
2013-09-30 19:17:00,68.8,57.0,29.93,SSE,158,0.0,0.0,67,0.00,,,0.00,weatherlink.com 1.10,2013-09-30 23:17:00,
2013-09-30 19:47:00,62.8,56.0,29.93,SSE,158,0.0,0.0,78,0.00,,,0.00,weatherlink.com 1.10,2013-09-30 23:47:00,
2013-09-30 20:02:00,60.2,54.0,29.93,SSE,158,0.0,0.0,80,0.00,,,0.00,weatherlink.com 1.10,2013-10-01 00:02:00,
2013-09-30 20:17:00,58.4,54.0,29.93,SSE,158,0.0,0.0,84,0.00,,,0.00,weatherlink.com 1.10,2013-10-01 00:17:00,
2013-09-30 20:32:00,56.9,53.0,29.93,SSE,158,0.0,0.0,86,0.00,,,0.00,weatherlink.com 1.10,2013-10-01 00:32:00,
2013-09-30 20:47:00,56.1,53.0,29.93,SSE,158,0.0,0.0,89,0.00,,,0.00,weatherlink.com 1.10,2013-10-01 00:47:00,
2013-09-30 21:02:00,55.4,53.0,29.93,SSE,158,0.0,0.0,90,0.00,,,0.00,weatherlink.com 1.10,2013-10-01 01:02:00,
2013-09-30 21:17:00,55.1,53.0,29.94,SSE,158,0.0,0.0,91,0.00,,,0.00,weatherlink.com 1.10,2013-10-01 01:17:00,
2013-09-30 21:32:00,54.6,53.0,29.94,SSE,158,0.0,0.0,93,0.00,,,0.00,weatherlink.com 1.10,2013-10-01 01:32:00,
2013-09-30 21:47:00,54.4,53.0,29.94,SSE,158,0.0,0.0,93,0.00,,,0.00,weatherlink.com 1.10,2013-10-01 01:47:00,
2013-09-30 22:29:00,53.3,51.0,29.95,SSE,158,0.0,0.0,93,0.00,,,0.00,weatherlink.com 1.10,2013-10-01 02:29:00,
2013-09-30 22:47:00,53.5,52.0,29.95,SSE,158,0.0,1.0,95,0.00,,,0.00,weatherlink.com 1.10,2013-10-01 02:47:00,
2013-09-30 23:02:00,53.3,52.0,29.95,SSE,158,0.0,0.0,95,0.00,,,0.00,weatherlink.com 1.10,2013-10-01 03:02:00,
2013-09-30 23:17:00,53.1,52.0,29.95,SSE,158,0.0,1.0,95,0.00,,,0.00,weatherlink.com 1.10,2013-10-01 03:17:00,
2013-09-30 23:32:00,53.1,52.0,29.95,SSE,158,0.0,1.0,95,0.00,,,0.00,weatherlink.com 1.10,2013-10-01 03:32:00,
2013-09-30 23:47:00,53.2,52.0,29.96,SSE,158,0.0,1.0,96,0.00,,,0.00,weatherlink.com 1.10,2013-10-01 03:47:00,